Lakeville, MN

12:19 PM CDT on May 27, 2017 (GMT -0500)
Airlake

Weather History for KLVN - December, 2011

Change the Weather History Date:

Monday, December 26, 2011

  Actual Average Record
Temperature  
Mean Temperature 36 °F -  
Max Temperature 48 °F 21 °F 48 °F (2011)
Min Temperature 23 °F 4 °F -25 °F (1996)
Degree Days  
Heating Degree Days 30    
Moisture  
Dew Point 22 °F    
Average Humidity 59    
Maximum Humidity 86    
Minimum Humidity 37    
Precipitation  
Precipitation 0.00 in - - ()
Sea Level Pressure  
Sea Level Pressure 29.85 in    
Wind  
Wind Speed 7 mph (SSW)    
Max Wind Speed 22 mph    
Max Gust Speed 44 mph    
Visibility 10 miles    
Events      
Averages and records for this station are not official NWS values.
T = Trace of Precipitation, MM = Missing Value Source: NWS Daily Summary

Daily Weather History Graph

Daily Weather History Graph

Search for Another Location

Airport or City:

Trip Planner

Search our weather history database for the weather conditions in past years. The results will help you decide how hot, cold, wet, or windy it might be!

Date:

Astronomy

Dec. 26, 2011 Rise Set
Actual Time 7:48 AM CST 4:38 PM CST
Civil Twilight 7:15 AM CST 5:11 PM CST
Nautical Twilight 6:38 AM CST 5:48 PM CST
Astronomical Twilight 6:02 AM CST 6:24 PM CST
Moon 9:04 AM CST (12/26) 7:12 PM CST (12/26)
Length of Visible Light 9h 56m
Length of Day
8h 49m
Waxing Crescent, 5% of the Moon is Illuminated
Dec 26
Waxing Crescent
Jan 1
First Quarter
Jan 9
Full
Jan 16
Last Quarter
Jan 23
New

Hourly Weather History & Observations

Time (CST) Temp. Windchill Dew Point Humidity Pressure Visibility Wind Dir Wind Speed Gust Speed Precip Events Conditions
12:08 AM 24.8 °F - 21.2 °F 86% 30.15 in 10.0 mi Calm Calm - N/A   Clear
12:28 AM 24.8 °F - 21.2 °F 86% 30.14 in 10.0 mi Calm Calm - N/A   Clear
12:48 AM 26.6 °F - 21.2 °F 80% 30.13 in 10.0 mi Calm Calm - N/A   Clear
1:08 AM 26.6 °F 22.6 °F 21.2 °F 80% 30.12 in 10.0 mi SSW 3.5 mph - N/A   Clear
1:28 AM - - 32.0 °F N/A% - 10.0 mi Calm Calm - N/A   Clear
1:48 AM - - 19.4 °F N/A% 30.10 in 10.0 mi South 3.5 mph - N/A   Clear
2:09 AM 24.8 °F 20.5 °F 19.4 °F 80% 30.09 in 10.0 mi South 3.5 mph - N/A   Clear
2:28 AM 23.0 °F 17.0 °F 19.4 °F 86% 30.08 in 10.0 mi SSE 4.6 mph - N/A   Clear
2:48 AM 23.0 °F 17.0 °F 19.4 °F 86% 30.07 in 10.0 mi South 4.6 mph - N/A   Clear
3:08 AM 24.8 °F 16.9 °F 19.4 °F 80% 30.05 in 10.0 mi South 6.9 mph - N/A   Clear
3:28 AM 24.8 °F 19.1 °F 19.4 °F 80% 30.05 in 10.0 mi SSW 4.6 mph - N/A   Clear
3:48 AM 26.6 °F 20.0 °F 19.4 °F 74% 30.04 in 10.0 mi SSW 5.8 mph - N/A   Clear
4:08 AM 26.6 °F 19.1 °F 21.2 °F 80% 30.04 in 10.0 mi SSW 6.9 mph - N/A   Clear
4:29 AM 26.6 °F 18.2 °F 21.2 °F 80% 30.02 in 10.0 mi South 8.1 mph - N/A   Clear
4:48 AM 24.8 °F 16.9 °F 19.4 °F 80% 30.01 in 10.0 mi South 6.9 mph - N/A   Clear
5:08 AM 24.8 °F 17.9 °F 19.4 °F 80% 30.00 in 10.0 mi South 5.8 mph - N/A   Clear
5:29 AM 26.6 °F 19.1 °F 19.4 °F 74% 29.98 in 10.0 mi South 6.9 mph - N/A   Clear
6:09 AM 28.4 °F 19.7 °F 21.2 °F 74% 29.95 in 10.0 mi South 9.2 mph - N/A   Clear
6:28 AM 28.4 °F 19.1 °F 21.2 °F 74% 29.95 in 10.0 mi South 10.4 mph - N/A   Clear
6:48 AM 28.4 °F 19.1 °F 21.2 °F 74% 29.93 in 10.0 mi South 10.4 mph - N/A   Clear
7:08 AM 28.4 °F 19.1 °F 21.2 °F 74% 29.92 in 10.0 mi South 10.4 mph - N/A   Clear
7:29 AM 30.2 °F 20.8 °F 21.2 °F 69% 29.91 in 10.0 mi South 11.5 mph - N/A   Clear
7:48 AM 30.2 °F 20.2 °F 21.2 °F 69% 29.88 in 10.0 mi South 12.7 mph - N/A   Clear
8:08 AM 32.0 °F 21.6 °F 21.2 °F 64% 29.86 in 10.0 mi South 15.0 mph - N/A   Clear
8:29 AM 33.8 °F 24.3 °F 21.2 °F 60% 29.86 in 10.0 mi South 13.8 mph 19.6 mph N/A   Clear
8:48 AM 33.8 °F 23.9 °F 19.4 °F 56% 29.85 in 10.0 mi SSW 15.0 mph 21.9 mph N/A   Clear
9:08 AM 35.6 °F 28.0 °F 21.2 °F 56% 29.85 in 10.0 mi SSW 10.4 mph 20.7 mph N/A   Clear
9:29 AM 37.4 °F 29.3 °F 21.2 °F 52% 29.84 in 10.0 mi SSW 12.7 mph 19.6 mph N/A   Clear
9:48 AM 39.2 °F 30.8 °F 21.2 °F 49% 29.82 in 10.0 mi South 15.0 mph 27.6 mph N/A   Clear
10:08 AM 39.2 °F 31.2 °F 21.2 °F 49% 29.81 in 10.0 mi SSW 13.8 mph 24.2 mph N/A   Clear
10:28 AM 42.8 °F 33.8 °F 21.2 °F 42% 29.79 in 10.0 mi SSW 21.9 mph 35.7 mph N/A   Clear
10:48 AM 42.8 °F 34.3 °F 21.2 °F 42% 29.78 in 10.0 mi SSW 19.6 mph 31.1 mph N/A   Clear
11:08 AM 42.8 °F 34.0 °F 21.2 °F 42% 29.77 in 10.0 mi SSW 20.7 mph 43.7 mph N/A   Clear
11:29 AM 42.8 °F 35.8 °F 21.2 °F 42% 29.77 in 10.0 mi SSW 13.8 mph 28.8 mph N/A   Clear
11:48 AM 44.6 °F 38.8 °F 21.2 °F 39% 29.76 in 10.0 mi SW 11.5 mph 25.3 mph N/A   Clear
12:08 PM 46.4 °F 39.5 °F 21.2 °F 37% 29.75 in 10.0 mi SW 17.3 mph 27.6 mph N/A   Clear
12:28 PM 46.4 °F 40.7 °F 21.2 °F 37% 29.74 in 10.0 mi SW 12.7 mph 24.2 mph N/A   Clear
12:48 PM 46.4 °F 39.8 °F 23.0 °F 40% 29.73 in 10.0 mi SW 16.1 mph 29.9 mph N/A   Clear
1:08 PM 46.4 °F 39.2 °F 23.0 °F 40% 29.73 in 10.0 mi SW 18.4 mph 33.4 mph N/A   Clear
1:29 PM 46.4 °F 40.4 °F 24.8 °F 43% 29.72 in 10.0 mi SW 13.8 mph 29.9 mph N/A   Clear
1:48 PM 46.4 °F 41.5 °F 24.8 °F 43% 29.72 in 10.0 mi WSW 10.4 mph 27.6 mph N/A   Clear
2:09 PM 48.2 °F - 23.0 °F 37% 29.71 in 10.0 mi WSW 11.5 mph 24.2 mph N/A   Clear
2:28 PM 46.4 °F 41.1 °F 24.8 °F 43% 29.71 in 10.0 mi SW 11.5 mph 24.2 mph N/A   Clear
2:48 PM 46.4 °F 40.4 °F 24.8 °F 43% 29.71 in 10.0 mi WSW 13.8 mph 27.6 mph N/A   Clear
3:08 PM 46.4 °F 40.4 °F 24.8 °F 43% 29.71 in 10.0 mi WSW 13.8 mph 24.2 mph N/A   Clear
3:28 PM 46.4 °F 41.5 °F 24.8 °F 43% 29.70 in 10.0 mi SW 10.4 mph 21.9 mph N/A   Clear
3:48 PM 46.4 °F 41.9 °F 24.8 °F 43% 29.69 in 10.0 mi SW 9.2 mph 16.1 mph N/A   Clear
4:09 PM 44.6 °F 40.2 °F 24.8 °F 46% 29.70 in 10.0 mi WSW 8.1 mph - N/A   Clear
4:28 PM 42.8 °F 40.1 °F 24.8 °F 49% 29.70 in 10.0 mi SSW 4.6 mph - N/A   Clear
4:48 PM 42.8 °F 39.3 °F 24.8 °F 49% 29.70 in 10.0 mi SW 5.8 mph - N/A   Clear
5:08 PM 42.8 °F 40.1 °F 24.8 °F 49% 29.70 in 10.0 mi WSW 4.6 mph - N/A   Clear
5:28 PM 41.0 °F 38.0 °F 24.8 °F 53% 29.71 in 10.0 mi SW 4.6 mph - N/A   Clear
5:48 PM 41.0 °F 38.0 °F 24.8 °F 53% 29.71 in 10.0 mi WSW 4.6 mph - N/A   Clear
6:08 PM 39.2 °F 35.0 °F 24.8 °F 56% 29.72 in 10.0 mi SW 5.8 mph - N/A   Clear
6:28 PM 39.2 °F 34.2 °F 24.8 °F 56% 29.72 in 10.0 mi SW 6.9 mph - N/A   Clear
6:48 PM 39.2 °F 35.0 °F 24.8 °F 56% 29.71 in 10.0 mi SW 5.8 mph - N/A   Clear
7:08 PM 39.2 °F 33.6 °F 24.8 °F 56% 29.71 in 10.0 mi SW 8.1 mph - N/A   Clear
7:28 PM 39.2 °F 34.2 °F 24.8 °F 56% 29.70 in 10.0 mi SSW 6.9 mph - N/A   Clear
7:48 PM 39.2 °F 35.0 °F 24.8 °F 56% 29.70 in 10.0 mi SSW 5.8 mph - N/A   Scattered Clouds
8:08 PM 39.2 °F 35.9 °F 24.8 °F 56% 29.70 in 10.0 mi SSW 4.6 mph - N/A   Mostly Cloudy
8:29 PM 41.0 °F 36.4 °F 24.8 °F 53% 29.69 in 10.0 mi SW 6.9 mph - N/A   Overcast
8:48 PM 41.0 °F 36.4 °F 24.8 °F 53% 29.69 in 10.0 mi SW 6.9 mph - N/A   Overcast
9:08 PM 41.0 °F 36.4 °F 26.6 °F 57% 29.68 in 10.0 mi SW 6.9 mph - N/A   Overcast
9:29 PM 41.0 °F 36.4 °F 26.6 °F 57% 29.68 in 10.0 mi SW 6.9 mph - N/A   Overcast
9:48 PM 41.0 °F 35.8 °F 26.6 °F 57% 29.69 in 10.0 mi SW 8.1 mph - N/A   Overcast
10:08 PM 41.0 °F 35.8 °F 28.4 °F 61% 29.68 in 10.0 mi WSW 8.1 mph - N/A   Overcast
10:29 PM 42.8 °F 36.2 °F 28.4 °F 57% 29.69 in 10.0 mi West 12.7 mph 18.4 mph N/A   Overcast
11:08 PM 39.2 °F 32.0 °F 30.2 °F 70% 29.68 in 10.0 mi West 11.5 mph 19.6 mph N/A   Clear
11:28 PM 37.4 °F 30.8 °F 30.2 °F 75% 29.68 in 10.0 mi West 9.2 mph - N/A   Clear
11:48 PM 37.4 °F 29.8 °F 30.2 °F 75% 29.68 in 10.0 mi West 11.5 mph - N/A   Clear